This is the latest recevied weather packets stored in our database for station/object SQ7FJB-2. If no packets are shown the sender has not sent any weather packets the latest 10 day(s).
| Time | Temp. | Humidity | Pressure | Rain* | Wind** | Luminosity | Snow |
|---|---|---|---|---|---|---|---|
| 1777751062 | 10° C | 71% | 1018.8 hPa | 0 mm | - | - | - |
| 1777750450 | 10.56° C | 73% | 1018.8 hPa | 0 mm | - | - | - |
| 1777749850 | 10.56° C | 71% | 1018.9 hPa | 0 mm | - | - | - |
| 1777749250 | 11.11° C | 71% | 1018.9 hPa | 0 mm | - | - | - |
| 1777748637 | 11.67° C | 70% | 1018.9 hPa | 0 mm | - | - | - |
| 1777748025 | 12.22° C | 68% | 1019 hPa | 0 mm | - | - | - |
| 1777747425 | 12.78° C | 67% | 1018.9 hPa | 0 mm | - | - | - |
| 1777746825 | 13.33° C | 62% | 1018.9 hPa | 0 mm | - | - | - |
| 1777746213 | 13.89° C | 60% | 1018.9 hPa | 0 mm | - | - | - |
| 1777745613 | 15° C | 58% | 1018.9 hPa | 0 mm | - | - | - |
| 1777745000 | 15.56° C | 55% | 1018.9 hPa | 0 mm | - | - | - |
| 1777744400 | 17.22° C | 54% | 1018.8 hPa | 0 mm | - | - | - |
| 1777743787 | 18.33° C | 46% | 1018.8 hPa | 0 mm | - | - | - |
| 1777743175 | 19.44° C | 42% | 1018.8 hPa | 0 mm | - | - | - |
| 1777742575 | 20.56° C | 38% | 1018.8 hPa | 0 mm | - | - | - |
| 1777741963 | 21.67° C | 35% | 1018.9 hPa | 0 mm | - | - | - |
| 1777741350 | 21.11° C | 34% | 1019 hPa | 0 mm | - | - | - |
| 1777740738 | 21.11° C | 35% | 1019 hPa | 0 mm | - | - | - |
| 1777740138 | 21.11° C | 33% | 1019 hPa | 0 mm | - | - | - |
| 1777739525 | 21.67° C | 33% | 1019.1 hPa | 0 mm | - | - | - |
| 1777738913 | 21.67° C | 33% | 1019.2 hPa | 0 mm | - | - | - |
| 1777738312 | 22.22° C | 34% | 1019.3 hPa | 0 mm | - | - | - |
| 1777737701 | 23.89° C | 31% | 1019.4 hPa | 0 mm | - | - | - |
| 1777737089 | 23.33° C | 30% | 1019.6 hPa | 0 mm | - | - | - |
| 1777736475 | 24.44° C | 29% | 1019.7 hPa | 0 mm | - | - | - |
* Rain latest hour (hover to see other rain measurements)
** Current wind speed in m/s (hover to see current wind gust speed)